Jefferson, NC

5:24 AM EDT on August 24, 2017 (GMT -0400)
Ashe County

Weather History for KGEV - January, 2010

Change the Weather History Date:

Friday, January 8, 2010

  Actual Average Record
Temperature  
Mean Temperature 16 °F -  
Max Temperature 26 °F 42 °F 62 °F (2008)
Min Temperature 6 °F 22 °F -6 °F (1970)
Degree Days  
Heating Degree Days 49    
Moisture  
Dew Point 3 °F    
Average Humidity 62    
Maximum Humidity 80    
Minimum Humidity 48    
Precipitation  
Precipitation 0.00 in - - ()
Sea Level Pressure  
Sea Level Pressure 29.85 in    
Wind  
Wind Speed 17 mph (NW)    
Max Wind Speed 26 mph    
Max Gust Speed 37 mph    
Visibility 6 miles    
Events Snow    
Averages and records for this station are not official NWS values.
T = Trace of Precipitation, MM = Missing Value Source: NWS Daily Summary

Daily Weather History Graph

Daily Weather History Graph

Search for Another Location

Airport or City:

Trip Planner

Search our weather history database for the weather conditions in past years. The results will help you decide how hot, cold, wet, or windy it might be!

Date:

Astronomy

Jan. 08, 2010 Rise Set
Actual Time 7:37 AM EST 5:27 PM EST
Civil Twilight 7:09 AM EST 5:55 PM EST
Nautical Twilight 6:37 AM EST 6:27 PM EST
Astronomical Twilight 6:06 AM EST 6:58 PM EST
Moon 1:40 AM EST (1/8) 12:17 PM EST (1/8)
Length of Visible Light 10h 46m
Length of Day
9h 49m
Last Quarter, 37% of the Moon is Illuminated
Jan 8
Last Quarter
Jan 15
New
Jan 23
First Quarter
Jan 30
Full
Feb 5
Last Quarter

Hourly Weather History & Observations

Time (EST) Temp. Windchill Dew Point Humidity Pressure Visibility Wind Dir Wind Speed Gust Speed Precip Events Conditions
12:01 AM 24.8 °F 10.0 °F 19.4 °F 80% 29.77 in 4.0 mi West 21.9 mph 28.8 mph N/A Snow Light Snow
12:22 AM 24.8 °F 10.7 °F 17.6 °F 74% 29.77 in 4.0 mi West 19.6 mph 28.8 mph N/A Snow Light Snow
12:42 AM 26.6 °F 13.8 °F 17.6 °F 69% 29.76 in 4.0 mi West 17.3 mph 23.0 mph N/A Snow Light Snow
1:01 AM 26.6 °F 13.8 °F 14.0 °F 59% 29.75 in 5.0 mi West 17.3 mph 26.5 mph N/A Snow Light Snow
1:21 AM 26.6 °F 12.7 °F 14.0 °F 59% 29.75 in 7.0 mi West 20.7 mph 26.5 mph N/A Snow Light Snow
1:41 AM 24.8 °F 13.4 °F 14.0 °F 64% 29.75 in 10.0 mi West 12.7 mph 19.6 mph N/A Snow Light Snow
2:04 AM 24.8 °F 16.9 °F 17.6 °F 74% 29.75 in 2.0 mi West 6.9 mph 18.4 mph N/A Snow Light Snow
2:21 AM 24.8 °F 12.9 °F 17.6 °F 74% 29.75 in 2.0 mi West 13.8 mph 19.6 mph N/A Snow Light Snow
2:41 AM 23.0 °F 9.6 °F 14.0 °F 68% 29.76 in 2.0 mi WNW 16.1 mph 28.8 mph N/A Snow Light Snow
3:01 AM 21.2 °F 7.8 °F 12.2 °F 68% 29.77 in 1.8 mi WNW 15.0 mph 27.6 mph N/A Snow Light Snow
3:21 AM 19.4 °F 5.0 °F 12.2 °F 74% 29.78 in 1.5 mi WNW 16.1 mph 26.5 mph N/A Snow Light Snow
3:41 AM 17.6 °F 1.3 °F 10.4 °F 73% 29.78 in 1.5 mi WNW 19.6 mph 27.6 mph N/A Snow Light Snow
4:01 AM 17.6 °F 3.2 °F 10.4 °F 73% 29.78 in 1.2 mi WNW 15.0 mph 29.9 mph N/A Snow Light Snow
4:21 AM 17.6 °F -0.6 °F 8.6 °F 68% 29.77 in 1.2 mi WNW 25.3 mph 36.8 mph N/A Snow Light Snow
4:41 AM 15.8 °F -1.9 °F 6.8 °F 68% 29.78 in 1.2 mi West 21.9 mph 35.7 mph N/A Snow Light Snow
5:01 AM 14.0 °F -3.0 °F 6.8 °F 73% 29.78 in 1.0 mi NW 18.4 mph 26.5 mph N/A Snow Light Snow
5:21 AM 14.0 °F -5.8 °F 3.2 °F 62% 29.77 in 2.5 mi West 26.5 mph 35.7 mph N/A Snow Light Snow
5:42 AM 12.2 °F -3.7 °F 3.2 °F 67% 29.78 in 3.0 mi WNW 15.0 mph 31.1 mph N/A Snow Light Snow
6:01 AM 12.2 °F -6.7 °F 3.2 °F 67% 29.79 in 2.0 mi WNW 21.9 mph 29.9 mph N/A Snow Light Snow
6:21 AM 10.4 °F -10.3 °F -0.4 °F 62% 29.80 in 2.0 mi WNW 25.3 mph 36.8 mph N/A Snow Light Snow
6:41 AM 10.4 °F -7.7 °F -0.4 °F 62% 29.81 in 3.0 mi NW 18.4 mph 29.9 mph N/A   Haze
7:01 AM 8.6 °F -8.3 °F -0.4 °F 67% 29.82 in 2.5 mi NW 15.0 mph 34.5 mph N/A Snow Light Snow
7:22 AM 8.6 °F -10.0 °F -2.2 °F 62% 29.82 in 2.5 mi NNW 18.4 mph 32.2 mph N/A Snow Light Snow
7:41 AM 8.6 °F -7.0 °F -0.4 °F 67% 29.82 in 3.0 mi NW 12.7 mph 26.5 mph N/A Snow Light Snow
8:02 AM 6.8 °F -10.7 °F -4.0 °F 61% 29.83 in 4.0 mi NW 15.0 mph 28.8 mph N/A   Haze
8:21 AM 6.8 °F -12.4 °F -2.2 °F 67% 29.83 in 4.0 mi WNW 18.4 mph 29.9 mph N/A   Haze
8:41 AM 6.8 °F -8.6 °F -4.0 °F 61% 29.84 in 2.5 mi WNW 11.5 mph 33.4 mph N/A   Haze
9:01 AM 6.8 °F -7.8 °F -4.0 °F 61% 29.85 in 4.0 mi NW 10.4 mph 28.8 mph N/A   Haze
9:22 AM 8.6 °F -4.7 °F -4.0 °F 57% 29.87 in 7.0 mi NNW 9.2 mph - N/A   Overcast
9:41 AM 8.6 °F -3.7 °F -4.0 °F 57% 29.88 in 4.0 mi NW 8.1 mph 23.0 mph N/A   Haze
10:01 AM 8.6 °F -4.7 °F -4.0 °F 57% 29.89 in 3.0 mi NW 9.2 mph 21.9 mph N/A   Haze
10:22 AM 8.6 °F -3.7 °F -4.0 °F 57% 29.90 in 5.0 mi NW 8.1 mph 18.4 mph N/A   Haze
10:41 AM 8.6 °F -6.3 °F -4.0 °F 57% 29.91 in 5.0 mi NW 11.5 mph 29.9 mph N/A   Haze
11:01 AM 8.6 °F -10.5 °F -4.0 °F 57% 29.91 in 5.0 mi NW 19.6 mph 26.5 mph N/A   Haze
11:21 AM 10.4 °F -6.0 °F -4.0 °F 52% 29.91 in 7.0 mi NW 15.0 mph 21.9 mph N/A   Haze
11:43 AM 10.4 °F -4.8 °F -4.0 °F 52% 29.91 in 7.0 mi NNW 12.7 mph 20.7 mph N/A   Mostly Cloudy
12:01 PM 12.2 °F -1.0 °F -4.0 °F 48% 29.90 in 10.0 mi NW 10.4 mph 17.3 mph N/A   Scattered Clouds
12:21 PM 12.2 °F -4.3 °F -2.2 °F 53% 29.90 in 10.0 mi NW 16.1 mph 21.9 mph N/A   Scattered Clouds
12:41 PM 12.2 °F -4.8 °F -2.2 °F 53% 29.89 in 7.0 mi NW 17.3 mph 24.2 mph N/A   Mostly Cloudy
1:02 PM 12.2 °F -6.3 °F -2.2 °F 53% 29.88 in 7.0 mi NW 20.7 mph 27.6 mph N/A   Mostly Cloudy
1:21 PM 12.2 °F -5.3 °F -2.2 °F 53% 29.89 in 7.0 mi NW 18.4 mph 29.9 mph N/A   Mostly Cloudy
1:41 PM 12.2 °F -5.3 °F -2.2 °F 53% 29.89 in 10.0 mi NW 18.4 mph 26.5 mph N/A   Scattered Clouds
2:01 PM 12.2 °F -4.3 °F -2.2 °F 53% 29.89 in 10.0 mi NW 16.1 mph 28.8 mph N/A   Scattered Clouds
2:21 PM 12.2 °F -5.8 °F -0.4 °F 57% 29.89 in 10.0 mi NW 19.6 mph 28.8 mph N/A   Scattered Clouds
2:41 PM 14.0 °F -2.5 °F -0.4 °F 53% 29.89 in 10.0 mi NW 17.3 mph 33.4 mph N/A   Scattered Clouds
3:01 PM 14.0 °F -3.9 °F -0.4 °F 53% 29.88 in 10.0 mi NW 20.7 mph 34.5 mph N/A   Clear
3:21 PM 12.2 °F -5.8 °F -0.4 °F 57% 29.89 in 7.0 mi NW 19.6 mph 34.5 mph N/A   Clear
3:41 PM 12.2 °F -7.1 °F -0.4 °F 57% 29.90 in 10.0 mi NW 23.0 mph 33.4 mph N/A   Clear
4:02 PM 12.2 °F -4.3 °F -0.4 °F 57% 29.91 in 10.0 mi NW 16.1 mph 31.1 mph N/A   Clear
4:21 PM 12.2 °F -4.8 °F -0.4 °F 57% 29.92 in 10.0 mi WNW 17.3 mph 32.2 mph N/A   Scattered Clouds
4:41 PM 12.2 °F -6.7 °F -0.4 °F 57% 29.92 in 10.0 mi NW 21.9 mph 31.1 mph N/A   Scattered Clouds
5:03 PM 12.2 °F -7.9 °F -0.4 °F 57% 29.92 in 10.0 mi NW 25.3 mph 32.2 mph N/A   Clear
5:22 PM 10.4 °F -8.2 °F -0.4 °F 62% 29.93 in 10.0 mi NW 19.6 mph 26.5 mph N/A   Clear
5:41 PM 10.4 °F -8.6 °F -0.4 °F 62% 29.93 in 10.0 mi NW 20.7 mph 32.2 mph N/A   Scattered Clouds
6:01 PM 10.4 °F -8.2 °F 1.4 °F 67% 29.94 in 10.0 mi NW 19.6 mph 27.6 mph N/A   Scattered Clouds
6:21 PM 10.4 °F -9.1 °F 1.4 °F 67% 29.93 in 7.0 mi NW 21.9 mph 26.5 mph N/A Snow Light Snow
6:41 PM 10.4 °F -6.0 °F 1.4 °F 67% 29.95 in 5.0 mi NW 15.0 mph 33.4 mph N/A Snow Light Snow
7:05 PM 10.4 °F -4.1 °F 1.4 °F 67% 29.96 in 5.0 mi NW 11.5 mph 27.6 mph N/A Snow Light Snow
7:21 PM 10.4 °F -4.8 °F 1.4 °F 67% 29.97 in 7.0 mi WNW 12.7 mph 26.5 mph N/A Snow Light Snow
7:41 PM 10.4 °F -3.3 °F 1.4 °F 67% 29.98 in 5.0 mi NW 10.4 mph 35.7 mph N/A Snow Light Snow
8:01 PM 10.4 °F -0.4 °F 1.4 °F 67% 29.99 in 5.0 mi WNW 6.9 mph 32.2 mph N/A Snow Light Snow
8:21 PM 10.4 °F -6.6 °F 1.4 °F 67% 29.98 in 5.0 mi NW 16.1 mph 21.9 mph N/A Snow Light Snow
8:45 PM 10.4 °F -3.3 °F 1.4 °F 67% 30.00 in 7.0 mi WNW 10.4 mph 25.3 mph N/A Snow Light Snow
9:01 PM 12.2 °F -3.1 °F 1.4 °F 62% 30.00 in 10.0 mi NW 13.8 mph 31.1 mph N/A   Clear
9:21 PM 12.2 °F -3.1 °F 1.4 °F 62% 29.99 in 10.0 mi NW 13.8 mph 25.3 mph N/A   Scattered Clouds
9:41 PM 12.2 °F -7.1 °F 1.4 °F 62% 29.99 in 7.0 mi NW 23.0 mph 34.5 mph N/A Snow Light Snow
10:01 PM 12.2 °F -3.1 °F 3.2 °F 67% 30.01 in 3.0 mi WNW 13.8 mph 27.6 mph N/A Snow Light Snow
10:21 PM 12.2 °F -3.1 °F 3.2 °F 67% 30.02 in 4.0 mi NW 13.8 mph 20.7 mph N/A Snow Light Snow
10:41 PM 12.2 °F -0.2 °F 3.2 °F 67% 30.01 in 5.0 mi NW 9.2 mph 19.6 mph N/A Snow Light Snow
11:02 PM 14.0 °F 2.9 °F 3.2 °F 62% 30.02 in 10.0 mi NW 8.1 mph 18.4 mph N/A Snow Light Snow
11:21 PM 14.0 °F 5.1 °F 3.2 °F 62% 30.03 in 10.0 mi NW 5.8 mph - N/A Snow Light Snow
11:41 PM 12.2 °F -1.0 °F 3.2 °F 67% 30.03 in 10.0 mi WNW 10.4 mph 19.6 mph N/A Snow Light Snow